KY4JDC Weather Reports


Display with metric or nautical units.
time (UTC)temp
F
wind
direction
speed
MPH
gust
MPH
rain 1hr
in
rain 24hr
in
rain mn
in
humidity
%
barometer
mb
20260507144056 60 330 0.0 0.0 0.00 0.00 0.00 48 1020.0
20260507143552 59 295 2.0 2.0 0.00 0.00 0.00 45 1020.1
20260507143050 59 127 0.0 1.0 0.00 0.00 0.00 49 1019.8
20260507142550 58 77 0.0 0.0 0.00 0.00 0.00 50 1019.9
20260507142047 57 141 2.0 1.0 0.00 0.00 0.00 50 1020.0
20260507141543 57 126 1.0 2.0 0.00 0.00 0.00 51 1019.8
20260507141040 56 69 0.0 1.0 0.00 0.00 0.00 55 1019.9
20260507140537 56 83 0.0 0.0 0.00 0.00 0.00 56 1019.8
20260507140035 56 99 0.0 1.0 0.00 0.00 0.00 54 1019.9
20260507135531 56 44 1.0 1.0 0.00 0.00 0.00 51 1019.8
20260507135029 55 57 0.0 1.0 0.00 0.00 0.00 54 1019.6
20260507134525 55 48 0.0 1.0 0.00 0.00 0.00 56 1019.9
20260507134021 54 53 0.0 1.0 0.00 0.00 0.00 56 1019.9
20260507133517 53 65 0.0 2.0 0.00 0.00 0.00 57 1019.8
20260507133016 53 43 1.0 2.0 0.00 0.00 0.00 58 1019.6
20260507132511 53 43 0.0 3.0 0.00 0.00 0.00 60 1019.8
20260507132008 52 47 1.0 1.0 0.00 0.00 0.00 59 1019.7
20260507131505 52 42 0.0 2.0 0.00 0.00 0.00 60 1019.8
20260507131002 52 55 0.0 1.0 0.00 0.00 0.00 64 1019.7
20260507130459 51 62 0.0 1.0 0.00 0.00 0.00 67 1019.9
20260507125957 51 72 0.0 1.0 0.00 0.00 0.00 67 1019.8
20260507125455 51 37 1.0 1.0 0.00 0.00 0.00 66 1019.9
20260507124952 50 51 0.0 1.0 0.00 0.00 0.00 72 1019.9
20260507124448 50 46 0.0 1.0 0.00 0.00 0.00 71 1019.5
20260507123947 49 47 0.0 0.0 0.00 0.00 0.00 74 1019.7
20260507123444 49 47 0.0 0.0 0.00 0.00 0.00 75 1019.7
20260507122940 49 46 0.0 0.0 0.00 0.00 0.00 76 1019.6
20260507122436 48 46 0.0 0.0 0.00 0.00 0.00 78 1019.6
20260507121932 48 46 1.0 1.0 0.00 0.00 0.00 78 1019.6
20260507121427 47 46 0.0 1.0 0.00 0.00 0.00 80 1019.4
20260507120924 46 46 0.0 1.0 0.00 0.00 0.00 82 1019.3
20260507120421 46 46 0.0 0.0 0.00 0.00 0.00 84 1019.5
20260507115917 45 46 0.0 0.0 0.00 0.00 0.00 87 1019.1
20260507115413 45 46 0.0 0.0 0.00 0.00 0.00 90 1019.0
20260507114909 44 46 0.0 0.0 0.00 0.00 0.00 92 1018.9
20260507114406 44 46 0.0 0.0 0.00 0.00 0.00 93 1019.1
20260507113903 44 46 0.0 0.0 0.00 0.00 0.00 93 1018.9
20260507113400 44 46 0.0 0.0 0.00 0.00 0.00 93 1019.0
20260507112857 44 46 0.0 0.0 0.00 0.00 0.00 93 1018.8
20260507112355 44 46 0.0 0.0 0.00 0.00 0.00 93 1019.1
20260507111852 44 46 0.0 0.0 0.00 0.00 0.00 93 1019.0
20260507111349 44 46 0.0 0.0 0.00 0.00 0.00 93 1019.1
20260507110845 44 46 0.0 0.0 0.00 0.00 0.00 93 1018.8
20260507110341 44 46 0.0 0.0 0.00 0.00 0.00 93 1018.9
20260507105838 44 46 0.0 0.0 0.00 0.00 0.00 93 1019.1
20260507105335 44 46 0.0 0.0 0.00 0.00 0.00 93 1018.9
20260507104832 44 46 0.0 0.0 0.00 0.00 0.00 93 1018.9
20260507104328 44 46 0.0 0.0 0.00 0.00 0.00 93 1018.8
20260507103824 44 46 0.0 0.0 0.00 0.00 0.00 92 1018.9
20260507103321 44 46 0.0 0.0 0.00 0.00 0.00 92 1018.9
20260507102817 44 46 0.0 0.0 0.00 0.00 0.00 92 1018.8
20260507102314 44 46 0.0 0.0 0.00 0.00 0.00 92 1018.9
20260507101810 44 46 0.0 0.0 0.00 0.00 0.00 92 1018.8
20260507101305 44 46 0.0 0.0 0.00 0.00 0.00 91 1019.0
20260507100802 45 46 0.0 0.0 0.00 0.00 0.00 91 1018.9
20260507100300 45 46 0.0 0.0 0.00 0.00 0.00 91 1019.0
20260507095758 45 46 0.0 0.0 0.00 0.00 0.00 91 1018.9
20260507095254 45 46 0.0 0.0 0.00 0.00 0.00 91 1018.7
20260507094751 45 46 0.0 1.0 0.00 0.00 0.00 91 1018.7
20260507094248 45 46 0.0 0.0 0.00 0.00 0.00 91 1018.7
20260507093745 45 46 0.0 0.0 0.00 0.00 0.00 91 1018.5
20260507093244 45 46 0.0 0.0 0.00 0.00 0.00 91 1018.7
20260507092741 45 46 0.0 0.0 0.00 0.00 0.00 90 1018.7
20260507092237 45 46 0.0 0.0 0.00 0.00 0.00 90 1018.5
20260507091734 46 46 0.0 0.0 0.00 0.00 0.00 90 1018.4
20260507091230 46 46 0.0 0.0 0.00 0.00 0.00 90 1018.4
20260507090726 46 46 0.0 0.0 0.00 0.00 0.00 89 1018.3
20260507090222 46 46 0.0 0.0 0.00 0.00 0.00 89 1018.4
20260507085719 46 46 0.0 0.0 0.00 0.00 0.00 88 1018.4
20260507085217 46 46 0.0 0.0 0.00 0.00 0.00 88 1018.2
20260507084713 46 46 0.0 0.0 0.00 0.00 0.00 88 1018.3
20260507084210 46 46 0.0 0.0 0.00 0.00 0.00 88 1018.2
20260507083707 46 46 0.0 0.0 0.00 0.00 0.00 88 1018.0
20260507083204 46 46 0.0 0.0 0.00 0.00 0.00 88 1018.0
20260507082700 46 46 0.0 0.0 0.00 0.00 0.00 88 1018.0
20260507082156 47 46 0.0 0.0 0.00 0.00 0.00 88 1018.1
20260507081653 47 46 0.0 0.0 0.00 0.00 0.00 87 1017.9
20260507081149 47 46 0.0 0.0 0.00 0.00 0.00 87 1018.1
20260507080646 47 46 0.0 0.0 0.00 0.00 0.00 87 1017.9
20260507080142 47 46 0.0 0.0 0.00 0.00 0.00 87 1017.9
20260507075637 47 46 0.0 0.0 0.00 0.00 0.00 87 1018.1
20260507075133 48 46 0.0 0.0 0.00 0.00 0.00 87 1017.8
20260507074630 48 46 0.0 0.0 0.00 0.00 0.00 87 1018.1
20260507074129 47 46 0.0 0.0 0.00 0.00 0.00 88 1017.9
20260507073624 47 46 0.0 0.0 0.00 0.00 0.00 89 1018.0
20260507073121 47 46 0.0 0.0 0.00 0.00 0.00 89 1017.8
20260507072619 48 46 0.0 0.0 0.00 0.00 0.00 89 1017.9
20260507072116 48 46 0.0 0.0 0.00 0.00 0.00 89 1018.1
20260507071613 48 46 0.0 0.0 0.00 0.00 0.00 89 1018.1
20260507071109 48 46 0.0 0.0 0.00 0.00 0.00 88 1017.8
20260507070607 48 46 0.0 0.0 0.00 0.00 0.00 88 1018.1
20260507070104 48 46 0.0 0.0 0.00 0.00 0.00 88 1018.1
20260507065600 48 46 0.0 0.0 0.00 0.00 0.00 88 1018.2
20260507065057 48 46 0.0 0.0 0.00 0.00 0.00 88 1018.0
20260507064555 48 46 0.0 0.0 0.00 0.00 0.00 87 1018.0
20260507064053 49 46 0.0 0.0 0.00 0.00 0.00 87 1018.1
20260507063550 49 46 0.0 0.0 0.00 0.00 0.00 87 1018.2
20260507063048 49 46 0.0 0.0 0.00 0.00 0.00 85 1018.0
20260507062544 49 46 0.0 0.0 0.00 0.00 0.00 85 1018.2
20260507062042 49 46 0.0 0.0 0.00 0.00 0.00 85 1018.4
20260507061539 49 46 0.0 0.0 0.00 0.00 0.00 85 1018.2
20260507061037 49 46 0.0 0.0 0.00 0.00 0.00 85 1018.3
20260507060535 50 46 0.0 0.0 0.00 0.00 0.00 86 1018.4
20260507060031 50 46 0.0 0.0 0.00 0.00 0.00 85 1018.5
20260507055531 50 46 0.0 0.0 0.00 0.00 0.00 84 1018.4
20260507055028 50 46 0.0 0.0 0.00 0.00 0.00 85 1018.3
20260507054524 50 46 0.0 0.0 0.00 0.00 0.00 85 1018.2
20260507054021 50 46 0.0 0.0 0.00 0.00 0.00 83 1018.2
20260507053519 50 46 0.0 0.0 0.00 0.00 0.00 82 1018.3
20260507053018 51 46 0.0 0.0 0.00 0.00 0.00 81 1018.3
20260507052515 51 46 0.0 0.0 0.00 0.00 0.00 80 1018.2
20260507052011 51 46 0.0 0.0 0.00 0.00 0.00 80 1018.0
20260507051509 51 46 0.0 0.0 0.00 0.00 0.00 80 1018.1
20260507051006 51 46 0.0 0.0 0.00 0.00 0.00 79 1018.0
20260507050502 51 46 0.0 0.0 0.00 0.00 0.00 79 1018.0
20260507045959 52 46 0.0 0.0 0.00 0.33 0.33 79 1018.1
20260507045455 52 46 0.0 0.0 0.00 0.33 0.33 80 1018.4
20260507044953 52 46 0.0 0.0 0.00 0.33 0.33 80 1018.1
20260507044450 52 46 0.0 0.0 0.00 0.33 0.33 79 1018.4
20260507043946 52 46 0.0 0.0 0.00 0.33 0.33 78 1018.2
20260507043442 52 46 0.0 0.0 0.00 0.33 0.33 78 1018.3
20260507042938 53 46 0.0 0.0 0.00 0.33 0.33 78 1018.4
20260507042435 53 46 0.0 0.0 0.00 0.33 0.33 77 1018.1
20260507041931 53 46 0.0 0.0 0.00 0.33 0.33 77 1018.1
20260507041428 53 46 0.0 0.0 0.00 0.33 0.33 77 1018.3
20260507040925 53 46 0.0 1.0 0.00 0.33 0.33 77 1018.2
20260507040421 53 47 0.0 0.0 0.00 0.33 0.33 77 1017.8
20260507035917 53 46 0.0 0.0 0.00 0.33 0.33 77 1017.8
20260507035413 54 46 0.0 0.0 0.00 0.33 0.33 73 1017.8
20260507034910 54 46 0.0 0.0 0.00 0.33 0.33 73 1018.1
20260507034407 54 47 0.0 0.0 0.00 0.33 0.33 73 1017.8
20260507033905 54 47 0.0 0.0 0.00 0.33 0.33 73 1017.9
20260507033403 54 47 0.0 0.0 0.00 0.33 0.33 74 1017.7
20260507032900 54 47 0.0 0.0 0.00 0.33 0.33 74 1017.9
20260507032356 54 46 0.0 0.0 0.00 0.33 0.33 73 1017.8
20260507031853 54 47 0.0 0.0 0.00 0.33 0.33 74 1017.8
20260507031349 54 46 0.0 0.0 0.00 0.33 0.33 73 1017.9
20260507030846 54 47 0.0 0.0 0.00 0.33 0.33 73 1017.8
20260507030343 54 47 0.0 0.0 0.00 0.33 0.33 74 1017.7
20260507025840 55 46 0.0 0.0 0.00 0.33 0.33 74 1017.6
20260507025338 55 46 0.0 0.0 0.00 0.33 0.33 74 1017.4
20260507024835 54 47 0.0 0.0 0.00 0.33 0.33 76 1017.5
20260507024332 54 47 0.0 0.0 0.00 0.33 0.33 78 1017.3
20260507023828 54 47 0.0 1.0 0.00 0.33 0.33 79 1017.8
20260507023325 54 47 0.0 0.0 0.00 0.33 0.33 79 1017.8
20260507022822 54 47 0.0 0.0 0.00 0.33 0.33 79 1018.0
20260507022319 54 47 0.0 0.0 0.00 0.33 0.33 79 1018.0
20260507021815 54 47 0.0 0.0 0.00 0.33 0.33 79 1018.3
20260507021311 55 47 0.0 0.0 0.00 0.33 0.33 80 1018.3
20260507020809 55 47 0.0 0.0 0.00 0.33 0.33 80 1018.1
20260507020305 54 47 0.0 0.0 0.00 0.33 0.33 81 1018.2
20260507015802 54 47 0.0 0.0 0.00 0.33 0.33 79 1017.8
20260507015300 54 47 0.0 0.0 0.00 0.33 0.33 79 1017.4
20260507014756 55 47 0.0 0.0 0.00 0.33 0.33 80 1017.8
20260507014253 55 47 0.0 0.0 0.00 0.33 0.33 80 1017.6
20260507013749 55 47 0.0 0.0 0.00 0.33 0.33 79 1017.7
20260507013247 55 47 0.0 0.0 0.00 0.33 0.33 80 1017.5
20260507012744 55 47 0.0 0.0 0.00 0.33 0.33 80 1017.5
20260507012245 55 47 0.0 0.0 0.00 0.33 0.33 77 1017.4
20260507011743 55 47 0.0 0.0 0.00 0.33 0.33 75 1017.6
20260507011239 55 47 0.0 0.0 0.00 0.33 0.33 75 1018.0
20260507010738 56 47 0.0 0.0 0.00 0.33 0.33 74 1017.6
20260507010235 56 47 0.0 0.0 0.00 0.33 0.33 72 1017.8
20260507005732 56 47 0.0 0.0 0.00 0.33 0.33 72 1017.8
20260507005229 56 47 0.0 0.0 0.00 0.33 0.33 72 1017.3
20260507004725 56 47 0.0 0.0 0.00 0.33 0.33 71 1017.4
20260507004223 57 47 0.0 0.0 0.00 0.33 0.33 67 1017.2
20260507003719 57 46 0.0 0.0 0.00 0.33 0.33 65 1017.4
20260507003214 57 46 0.0 0.0 0.00 0.33 0.33 64 1017.0
20260507002711 57 46 0.0 0.0 0.00 0.33 0.33 64 1016.9
20260507002207 57 46 0.0 0.0 0.00 0.33 0.33 62 1016.9
20260507001703 58 46 0.0 0.0 0.00 0.33 0.33 62 1016.7
20260507001201 58 46 0.0 0.0 0.00 0.33 0.33 63 1016.6
20260507000657 58 49 1.0 1.0 0.00 0.33 0.33 62 1016.4
20260507000152 58 49 0.0 0.0 0.00 0.33 0.33 62 1016.3
20260506235650 58 49 0.0 0.0 0.00 0.33 0.33 63 1016.4
20260506235145 58 49 0.0 0.0 0.00 0.33 0.33 63 1016.4
20260506234643 58 40 0.0 1.0 0.00 0.33 0.33 60 1015.9
20260506234140 58 40 0.0 0.0 0.00 0.33 0.33 60 1016.0
20260506233637 58 41 0.0 1.0 0.00 0.33 0.33 61 1015.9
20260506233134 59 40 2.0 2.0 0.00 0.33 0.33 58 1015.9
20260506232630 59 63 0.0 1.0 0.00 0.33 0.33 58 1016.0
20260506232125 59 49 0.0 1.0 0.00 0.33 0.33 58 1015.9
20260506231623 59 47 1.0 2.0 0.00 0.33 0.33 55 1016.0
20260506231121 59 44 1.0 1.0 0.00 0.33 0.33 56 1016.0
20260506230618 59 42 1.0 1.0 0.00 0.33 0.33 56 1016.1
20260506230115 59 40 1.0 2.0 0.00 0.33 0.33 55 1016.0
20260506225611 59 41 0.0 0.0 0.00 0.33 0.33 59 1016.1
20260506225108 59 280 0.0 1.0 0.00 0.33 0.33 58 1016.3
20260506224604 59 342 1.0 2.0 0.00 0.33 0.33 55 1016.7
20260506224101 59 48 1.0 1.0 0.00 0.33 0.33 54 1016.4
20260506223557 60 78 0.0 1.0 0.00 0.33 0.33 57 1016.5
20260506223053 60 71 0.0 1.0 0.00 0.33 0.33 54 1016.5
20260506222550 60 124 1.0 1.0 0.00 0.33 0.33 54 1016.7
20260506222047 59 42 1.0 1.0 0.00 0.33 0.33 55 1016.5
20260506221544 58 51 0.0 1.0 0.00 0.33 0.33 56 1016.5
20260506221042 58 54 0.0 1.0 0.00 0.33 0.33 57 1016.4
20260506220538 58 47 1.0 1.0 0.00 0.33 0.33 57 1016.4
20260506220034 58 47 1.0 1.0 0.00 0.33 0.33 55 1016.6
20260506215531 58 53 0.0 0.0 0.00 0.33 0.33 59 1016.9
20260506215026 58 53 0.0 1.0 0.00 0.33 0.33 55 1017.0
20260506214524 58 42 1.0 1.0 0.00 0.33 0.33 56 1016.8
20260506214021 58 66 1.0 1.0 0.00 0.33 0.33 55 1017.2
20260506213519 58 74 0.0 1.0 0.00 0.33 0.33 56 1016.9
20260506213015 58 62 0.0 1.0 0.00 0.33 0.33 59 1016.9
20260506212512 58 87 0.0 1.0 0.00 0.33 0.33 60 1017.1
20260506212007 58 29 1.0 2.0 0.00 0.33 0.33 59 1017.3
20260506211503 59 61 1.0 1.0 0.00 0.33 0.33 57 1017.1
20260506211001 59 20 2.0 4.0 0.00 0.33 0.33 58 1017.2
20260506210457 59 287 0.0 1.0 0.00 0.33 0.33 59 1017.4
20260506205954 58 13 1.0 3.0 0.00 0.33 0.33 58 1017.4
20260506205449 58 19 0.0 2.0 0.00 0.33 0.33 60 1017.2
20260506204946 58 33 1.0 1.0 0.00 0.33 0.33 61 1017.0
20260506204444 58 63 1.0 1.0 0.00 0.33 0.33 59 1016.6
20260506203941 59 101 0.0 1.0 0.00 0.33 0.33 61 1017.5
20260506203438 59 117 0.0 2.0 0.00 0.33 0.33 60 1017.5
20260506202935 59 19 0.0 1.0 0.00 0.33 0.33 61 1017.3
20260506202432 59 46 0.0 2.0 0.00 0.33 0.33 57 1016.5
20260506201929 59 42 0.0 2.0 0.00 0.33 0.33 60 1016.2
20260506201426 59 328 1.0 1.0 0.00 0.33 0.33 59 1016.4
20260506200923 59 27 1.0 2.0 0.00 0.33 0.33 60 1016.8
20260506200419 58 47 1.0 1.0 0.00 0.33 0.33 60 1016.9
20260506195916 58 278 2.0 2.0 0.00 0.33 0.33 60 1016.9
20260506195413 58 69 0.0 0.0 0.00 0.33 0.33 60 1017.2
20260506194909 58 60 1.0 1.0 0.00 0.33 0.33 60 1017.5
20260506194406 58 87 0.0 1.0 0.00 0.33 0.33 59 1017.6
20260506193903 59 25 2.0 4.0 0.00 0.33 0.33 58 1017.6
20260506193400 59 7 2.0 4.0 0.00 0.33 0.33 57 1017.9
20260506192856 59 68 0.0 1.0 0.00 0.33 0.33 61 1017.7
20260506192353 59 58 0.0 0.0 0.00 0.33 0.33 61 1017.3
20260506191851 59 45 0.0 1.0 0.00 0.33 0.33 62 1017.3
20260506191347 59 11 1.0 3.0 0.00 0.33 0.33 60 1017.3
20260506190844 60 118 0.0 4.0 0.00 0.33 0.33 62 1017.2
20260506190340 59 247 1.0 2.0 0.00 0.33 0.33 60 1017.2
20260506185837 60 84 0.0 1.0 0.00 0.33 0.33 59 1017.1
20260506185334 60 97 0.0 1.0 0.00 0.33 0.33 63 1016.9
20260506184831 60 47 0.0 1.0 0.00 0.33 0.33 62 1016.9
20260506184328 60 44 0.0 2.0 0.00 0.33 0.33 58 1017.0
20260506183826 60 109 1.0 1.0 0.00 0.33 0.33 59 1017.2
20260506183320 61 85 1.0 2.0 0.00 0.33 0.33 61 1017.3
20260506182818 60 29 2.0 2.0 0.00 0.33 0.33 62 1016.8
20260506182315 60 49 2.0 2.0 0.00 0.33 0.33 56 1016.9
20260506181813 60 0 1.0 3.0 0.00 0.33 0.33 59 1017.0
20260506181310 59 56 1.0 2.0 0.00 0.33 0.33 58 1016.8
20260506180808 59 43 0.0 4.0 0.00 0.33 0.33 60 1017.3
20260506180303 59 111 0.0 1.0 0.00 0.33 0.33 66 1017.1
20260506175800 59 50 1.0 2.0 0.00 0.33 0.33 61 1017.3
20260506175257 58 45 0.0 2.0 0.00 0.33 0.33 66 1017.2
20260506174754 58 49 0.0 1.0 0.00 0.33 0.33 64 1017.2
20260506174251 58 42 1.0 1.0 0.00 0.33 0.33 60 1017.5
20260506173749 59 86 1.0 3.0 0.00 0.33 0.33 60 1017.3
20260506173246 59 254 1.0 1.0 0.00 0.33 0.33 62 1017.3
20260506172742 59 152 0.0 1.0 0.00 0.33 0.33 71 1017.1
20260506172239 58 64 0.0 3.0 0.00 0.33 0.33 65 1017.1
20260506171737 57 111 0.0 1.0 0.00 0.33 0.33 69 1017.2
20260506171234 57 95 1.0 2.0 0.00 0.33 0.33 66 1017.1
20260506170731 58 31 2.0 7.0 0.00 0.33 0.33 66 1017.1
20260506170227 57 119 0.0 1.0 0.00 0.33 0.33 70 1017.0
20260506165726 57 50 1.0 3.0 0.00 0.33 0.33 66 1017.0
20260506165223 57 48 1.0 1.0 0.00 0.33 0.33 66 1016.9
20260506164720 58 46 2.0 7.0 0.00 0.33 0.33 65 1016.8
20260506164217 58 110 1.0 2.0 0.00 0.33 0.33 68 1017.3
20260506163714 57 179 3.0 4.0 0.00 0.33 0.33 69 1017.2
20260506163208 56 115 0.0 0.0 0.00 0.33 0.33 75 1017.3
20260506162705 57 36 1.0 2.0 0.00 0.33 0.33 69 1017.2
20260506162202 57 57 0.0 1.0 0.00 0.33 0.33 68 1017.2
20260506161659 57 42 2.0 2.0 0.00 0.33 0.33 71 1017.4
20260506161156 56 85 2.0 2.0 0.00 0.33 0.33 72 1017.2
20260506160654 57 51 1.0 2.0 0.00 0.33 0.33 69 1017.2
20260506160151 56 67 1.0 2.0 0.00 0.33 0.33 71 1017.4
20260506155649 56 40 0.0 3.0 0.00 0.33 0.33 71 1017.4
20260506155146 56 59 1.0 3.0 0.00 0.33 0.33 72 1017.1
20260506153248 55 224 1.0 2.0 0.00 0.33 0.33 74 1017.3
20260506152745 54 39 1.0 2.0 0.00 0.33 0.33 75 1017.2
20260506152242 54 120 1.0 1.0 0.00 0.33 0.33 77 1017.4
20260506151741 54 68 1.0 2.0 0.00 0.33 0.33 76 1017.5
20260506151237 54 56 2.0 2.0 0.00 0.33 0.33 77 1017.3
20260506150734 53 48 1.0 1.0 0.00 0.33 0.33 79 1017.1
20260506150231 53 38 2.0 3.0 0.00 0.33 0.33 79 1017.2
20260506145728 53 49 1.0 10.0 0.00 0.33 0.33 79 1017.1
20260506145224 53 38 2.0 2.0 0.00 0.33 0.33 78 1017.1
20260506144722 53 40 0.0 2.0 0.00 0.33 0.33 82 1016.8